Find Starlink 30287

NORAD ID: 57709 Int'l Des: 2023-129 Owner: SPXS Country: US Constellation: starlink operational
LEOCIRCULAR

Current View

Loading 3D Globe...

About Starlink 30287

Starlink 30287 (NORAD 57709) is a starlink constellation satellite (v2 mini) launched Aug 27, 2023 by SPXS of US. It operates in LEO, CIRCULAR orbit with a mass of 730.00 kg.

About Starlink 30287

Description loading...

Upcoming Passes

Passes for default location (London). Set your location on the main map for personalized predictions.

Altitude History

Loading altitude history...

Two-Line Element Set

1 57709U 23129M 26170.75025446 .00000838 00000-0 39959-4 0 9992
2 57709 43.0018 261.3342 0001064 268.3126 91.7604 15.27576127156299
Epoch: Jun 19, 2026 • Age: 64 hours

Current Status

Altitude 486.9 km
Velocity 7.62 km/s
Sub-Earth Point -19.90°S, 159.66°E
Launch Date Aug 27, 2023
Age 2.8 years
Type internet

Technical Details

Classification Payload
Mass 730.00 kg
Dry Mass 700.00 kg
Total Mass 730.00 kg
Length 0.30 m
Diameter 4.10 m
Span 29.00 m
Shape Box + pan
Manufacturer SPXS
Bus Type Starlink V2M
Phase Status In Orbit
Owner/State SPXS/US

Most Searched